Cherokee, IA

10:05 PM CST on December 16, 2017 (GMT -0600)
Cherokee Municipal

Weather History for KCKP - February, 2014

Change the Weather History Date:

Sunday, February 23, 2014

  Actual Average Record
Temperature  
Mean Temperature 18 °F -  
Max Temperature 29 °F 37 °F 64 °F (1982)
Min Temperature 6 °F 17 °F -12 °F (1989)
Degree Days  
Heating Degree Days 48    
Moisture  
Dew Point 8 °F    
Average Humidity 66    
Maximum Humidity 87    
Minimum Humidity 47    
Precipitation  
Precipitation 0.00 in - - ()
Sea Level Pressure  
Sea Level Pressure 30.30 in    
Wind  
Wind Speed 5 mph (NW)    
Max Wind Speed 15 mph    
Max Gust Speed 21 mph    
Visibility 10 miles    
Events      
Averages and records for this station are not official NWS values.
T = Trace of Precipitation, MM = Missing Value Source: NWS Daily Summary

Daily Weather History Graph

Daily Weather History Graph

Search for Another Location

Airport or City:

Trip Planner

Search our weather history database for the weather conditions in past years. The results will help you decide how hot, cold, wet, or windy it might be!

Date:

Astronomy

Feb. 23, 2014 Rise Set
Actual Time 7:07 AM CST 6:04 PM CST
Civil Twilight 6:38 AM CST 6:32 PM CST
Nautical Twilight 6:06 AM CST 7:05 PM CST
Astronomical Twilight 5:33 AM CST 7:38 PM CST
Moon 2:10 AM CST (2/23) 12:03 PM CST (2/23)
Length of Visible Light 11h 54m
Length of Day
10h 56m
Last Quarter, 38% of the Moon is Illuminated
Feb 23
Last Quarter
Mar 1
New
Mar 8
First Quarter
Mar 16
Full
Mar 23
Last Quarter

Hourly Weather History & Observations

Time (CST) Temp. Windchill Dew Point Humidity Pressure Visibility Wind Dir Wind Speed Gust Speed Precip Events Conditions
12:15 AM 17.4 °F 9.1 °F 9.5 °F 71% 30.20 in 10.0 mi NNW 5.8 mph - N/A   Scattered Clouds
12:35 AM 16.5 °F 11.0 °F 9.1 °F 73% 30.22 in 10.0 mi WNW 3.5 mph - N/A   Clear
12:55 AM 15.8 °F 7.2 °F 9.3 °F 76% 30.23 in 10.0 mi NW 5.8 mph - N/A   Clear
1:15 AM 15.4 °F 8.1 °F 8.6 °F 74% 30.22 in 10.0 mi NW 4.6 mph - N/A   Clear
1:35 AM 15.1 °F 5.2 °F 8.2 °F 74% 30.22 in 10.0 mi NNW 6.9 mph - N/A   Clear
1:55 AM 14.9 °F 9.2 °F 7.7 °F 73% 30.23 in 10.0 mi NW 3.5 mph - N/A   Clear
2:15 AM 14.4 °F 8.6 °F 7.3 °F 74% 30.23 in 10.0 mi NNW 3.5 mph - N/A   Clear
2:35 AM 14.0 °F 5.1 °F 7.3 °F 75% 30.23 in 10.0 mi NNW 5.8 mph - N/A   Clear
2:55 AM 13.3 °F 7.3 °F 6.4 °F 74% 30.23 in 10.0 mi NW 3.5 mph - N/A   Clear
3:15 AM 12.7 °F 5.0 °F 6.4 °F 76% 30.23 in 10.0 mi NW 4.6 mph - N/A   Clear
3:35 AM 12.0 °F 4.1 °F 5.5 °F 75% 30.23 in 10.0 mi North 4.6 mph - N/A   Clear
3:55 AM 11.1 °F 4.9 °F 5.0 °F 76% 30.24 in 10.0 mi NNW 3.5 mph - N/A   Clear
4:15 AM 10.6 °F - 4.8 °F 78% 30.23 in 10.0 mi Calm Calm - N/A   Clear
4:35 AM 10.0 °F - 4.1 °F 77% 30.24 in 10.0 mi Calm Calm - N/A   Clear
4:55 AM 9.1 °F - 3.2 °F 77% 30.24 in 10.0 mi Calm Calm - N/A   Clear
5:15 AM 8.6 °F - 3.0 °F 78% 30.25 in 10.0 mi Calm Calm - N/A   Clear
5:35 AM 8.8 °F - 3.4 °F 79% 30.27 in 10.0 mi Calm Calm - N/A   Clear
5:55 AM 7.9 °F - 2.7 °F 79% 30.28 in 10.0 mi Calm Calm - N/A   Clear
6:15 AM 6.8 °F -0.1 °F 1.6 °F 79% 30.28 in 10.0 mi SSW 3.5 mph - N/A   Clear
6:35 AM 6.4 °F - 1.4 °F 80% 30.28 in 10.0 mi Calm Calm - N/A   Clear
6:55 AM 6.8 °F -0.1 °F 2.1 °F 81% 30.29 in 10.0 mi WSW 3.5 mph - N/A   Clear
7:15 AM 7.5 °F - 3.0 °F 82% 30.29 in 10.0 mi Calm Calm - N/A   Clear
7:35 AM 7.2 °F - 2.7 °F 82% 30.29 in 10.0 mi Calm Calm - N/A   Clear
7:55 AM 9.5 °F 3.0 °F 6.4 °F 87% 30.31 in 10.0 mi West 3.5 mph - N/A   Clear
8:15 AM 12.4 °F 6.3 °F 8.2 °F 83% 30.31 in 10.0 mi WNW 3.5 mph - N/A   Clear
8:35 AM 13.8 °F 4.9 °F 6.8 °F 74% 30.31 in 10.0 mi WNW 5.8 mph - N/A   Clear
8:55 AM 14.7 °F 7.3 °F 6.6 °F 70% 30.32 in 10.0 mi WNW 4.6 mph - N/A   Clear
9:15 AM 16.0 °F 8.8 °F 7.2 °F 68% 30.32 in 10.0 mi WNW 4.6 mph - N/A   Clear
9:35 AM 17.2 °F 6.8 °F 6.6 °F 63% 30.32 in 10.0 mi NW 8.1 mph - N/A   Clear
9:55 AM 17.6 °F 5.0 °F 5.2 °F 58% 30.32 in 10.0 mi NW 11.5 mph 17.3 mph N/A   Clear
10:15 AM 18.7 °F 7.0 °F 6.8 °F 60% 30.32 in 10.0 mi NW 10.4 mph - N/A   Clear
10:35 AM 19.9 °F 8.6 °F 7.5 °F 59% 30.33 in 10.0 mi WNW 10.4 mph - N/A   Clear
10:55 AM 20.1 °F 8.8 °F 6.8 °F 56% 30.33 in 10.0 mi WNW 10.4 mph 17.3 mph N/A   Clear
11:15 AM 21.6 °F 10.6 °F 7.5 °F 55% 30.33 in 10.0 mi NW 10.4 mph 16.1 mph N/A   Clear
11:35 AM 22.6 °F 10.1 °F 8.8 °F 55% 30.33 in 10.0 mi WNW 13.8 mph - N/A   Clear
11:55 AM 23.0 °F 12.4 °F 9.1 °F 55% 30.33 in 10.0 mi NW 10.4 mph 18.4 mph N/A   Scattered Clouds
12:15 PM 24.3 °F 12.7 °F 9.9 °F 54% 30.33 in 10.0 mi NNW 12.7 mph 19.6 mph N/A   Scattered Clouds
12:35 PM 25.5 °F 13.8 °F 11.1 °F 54% 30.32 in 10.0 mi WNW 13.8 mph 20.7 mph N/A   Clear
12:55 PM 26.6 °F 14.7 °F 10.9 °F 52% 30.32 in 10.0 mi NNW 15.0 mph 19.6 mph N/A   Clear
1:15 PM 27.0 °F 15.6 °F 10.9 °F 51% 30.31 in 10.0 mi WNW 13.8 mph 20.7 mph N/A   Clear
1:35 PM 27.7 °F 16.6 °F 11.3 °F 50% 30.30 in 10.0 mi NW 13.8 mph 18.4 mph N/A   Clear
1:55 PM 28.0 °F 17.5 °F 11.5 °F 50% 30.30 in 10.0 mi NW 12.7 mph 18.4 mph N/A   Clear
2:15 PM 28.9 °F 19.8 °F 12.7 °F 51% 30.30 in 10.0 mi NW 10.4 mph - N/A   Clear
2:35 PM 28.9 °F 18.2 °F 11.8 °F 49% 30.30 in 10.0 mi WNW 13.8 mph 18.4 mph N/A   Clear
2:55 PM 28.4 °F 19.7 °F 11.7 °F 50% 30.30 in 10.0 mi NW 9.2 mph 17.3 mph N/A   Clear
3:15 PM 29.3 °F 18.2 °F 12.7 °F 50% 30.30 in 10.0 mi NW 15.0 mph - N/A   Clear
3:35 PM 28.9 °F 18.6 °F 11.1 °F 47% 30.30 in 10.0 mi WNW 12.7 mph 19.6 mph N/A   Clear
3:55 PM 28.4 °F 18.5 °F 11.5 °F 49% 30.30 in 10.0 mi NW 11.5 mph 16.1 mph N/A   Clear
4:15 PM 28.0 °F 19.3 °F 10.9 °F 49% 30.30 in 10.0 mi NW 9.2 mph - N/A   Clear
4:35 PM 27.7 °F 18.2 °F 10.9 °F 50% 30.31 in 10.0 mi NW 10.4 mph - N/A   Clear
4:55 PM 26.6 °F 17.5 °F 10.4 °F 51% 30.31 in 10.0 mi NW 9.2 mph - N/A   Clear
5:15 PM 26.2 °F 18.6 °F 10.8 °F 52% 30.30 in 10.0 mi NW 6.9 mph - N/A   Clear
5:35 PM 25.3 °F 15.3 °F 11.3 °F 55% 30.30 in 10.0 mi NNW 10.4 mph - N/A   Scattered Clouds
5:39 PM 24.8 °F 15.3 °F 10.4 °F 54% 30.30 in 10.0 mi NNW 9.2 mph - N/A   Scattered Clouds
5:55 PM 24.8 °F 16.1 °F 11.3 °F 57% 30.31 in 10.0 mi NW 8.1 mph - N/A   Scattered Clouds
6:04 PM 24.8 °F 16.9 °F 10.4 °F 54% 30.31 in 10.0 mi NNW 6.9 mph - N/A   Scattered Clouds
6:15 PM 23.9 °F 16.8 °F 11.8 °F 60% 30.31 in 10.0 mi NW 5.8 mph - N/A   Clear
6:35 PM 23.5 °F 15.4 °F 12.2 °F 62% 30.31 in 10.0 mi NW 6.9 mph - N/A   Clear
6:55 PM 22.8 °F 16.7 °F 12.0 °F 63% 30.32 in 10.0 mi NW 4.6 mph - N/A   Scattered Clouds
7:15 PM 22.1 °F 14.7 °F 11.8 °F 65% 30.32 in 10.0 mi NNW 5.8 mph - N/A   Clear
7:35 PM 21.0 °F 14.6 °F 11.3 °F 66% 30.32 in 10.0 mi NW 4.6 mph - N/A   Clear
7:55 PM 20.5 °F 12.8 °F 10.9 °F 67% 30.32 in 10.0 mi NW 5.8 mph - N/A   Clear
8:15 PM 20.3 °F 12.5 °F 10.4 °F 66% 30.32 in 10.0 mi NNW 5.8 mph - N/A   Clear
8:35 PM 19.2 °F 14.1 °F 10.2 °F 68% 30.32 in 10.0 mi NNW 3.5 mph - N/A   Clear
8:55 PM 17.6 °F - 9.3 °F 70% 30.33 in 10.0 mi Calm Calm - N/A   Clear
9:15 PM 17.2 °F - 9.1 °F 71% 30.33 in 10.0 mi Calm Calm - N/A   Clear
9:35 PM 15.8 °F - 8.2 °F 72% 30.33 in 10.0 mi Calm Calm - N/A   Clear
9:55 PM 15.1 °F 9.4 °F 8.6 °F 76% 30.34 in 10.0 mi SW 3.5 mph - N/A   Scattered Clouds
10:15 PM 14.4 °F - 8.6 °F 78% 30.35 in 10.0 mi Calm Calm - N/A   Scattered Clouds
10:35 PM 13.6 °F - 8.1 °F 78% 30.34 in 10.0 mi Calm Calm - N/A   Clear
10:55 PM 13.6 °F - 8.2 °F 79% 30.35 in 10.0 mi Calm Calm - N/A   Clear
11:15 PM 13.1 °F - 7.7 °F 79% 30.34 in 10.0 mi Calm Calm - N/A   Clear
11:35 PM 13.5 °F - 8.4 °F 80% 30.34 in 10.0 mi Calm Calm - N/A   Clear
11:55 PM 13.6 °F - 8.6 °F 80% 30.34 in 10.0 mi Calm Calm - N/A   Clear